Maastricht, Netherlands

7:15 AM CEST on August 25, 2016 (GMT +0200)
Maastricht-Aachen

Weather History for EHBK - December, 2013

Change the Weather History Date:

Sunday, December 1, 2013

  Actual Average Record
Temperature  
Mean Temperature 40 °F -  
Max Temperature 45 °F 42 °F 59 °F (2003)
Min Temperature 36 °F 33 °F 19 °F (2010)
Degree Days  
Heating Degree Days 24    
Moisture  
Dew Point 41 °F    
Average Humidity 97    
Maximum Humidity 100    
Minimum Humidity 85    
Precipitation  
Precipitation 0.00 in 0.10 in - ()
Sea Level Pressure  
Sea Level Pressure 30.41 in    
Wind  
Wind Speed 4 mph ()    
Max Wind Speed 9 mph    
Max Gust Speed -    
Visibility 2.8 miles    
Events Fog , Rain    
Averages and records for this station are not official NWS values.
T = Trace of Precipitation, MM = Missing Value Source: Averaged Metar Reports

Daily Weather History Graph

Daily Weather History Graph

Search for Another Location

Airport or City:

Trip Planner

Search our weather history database for the weather conditions in past years. The results will help you decide how hot, cold, wet, or windy it might be!

Date:

Astronomy

Dec. 01, 2013 Rise Set
Actual Time 8:17 AM CET 4:34 PM CET
Civil Twilight 7:39 AM CET 5:12 PM CET
Nautical Twilight 6:57 AM CET 5:54 PM CET
Astronomical Twilight 6:17 AM CET 6:33 PM CET
Moon 6:07 AM CET (12/1) 3:39 PM CET (12/1)
Length of Visible Light 9h 33m
Length of Day
8h 16m
Waning Crescent, 3% of the Moon is Illuminated
Dec 1
Waning Crescent
Dec 3
New
Dec 9
First Quarter
Dec 17
Full
Dec 25
Last Quarter

Hourly Weather History & Observations

Time (CET) Temp. Windchill Dew Point Humidity Pressure Visibility Wind Dir Wind Speed Gust Speed Precip Events Conditions
12:25 AM 39.2 °F 35.9 °F 39.2 °F 100% 30.36 in 4.3 mi WSW 4.6 mph - N/A   Overcast
12:55 AM 39.2 °F 37.0 °F 39.2 °F 100% 30.36 in - SW 3.5 mph - N/A   Overcast
1:00 AM 40 °F - 40 °F 98% 30.39 in 2 mi SW 4.5 mph - -   Mist
1:25 AM 39.2 °F 35.9 °F 39.2 °F 100% 30.36 in 1.6 mi SSW 4.6 mph - N/A   Overcast
1:55 AM 41.0 °F 38.0 °F 39.2 °F 93% 30.36 in 3.1 mi WNW 4.6 mph - N/A   Mostly Cloudy
2:25 AM 41.0 °F 39.0 °F 41.0 °F 100% 30.36 in 1.9 mi WNW 3.5 mph - N/A Rain Light Rain
2:55 AM 39.2 °F 37.0 °F 39.2 °F 100% 30.36 in 0.6 mi SW 3.5 mph - N/A   Mostly Cloudy
3:25 AM 39.2 °F 35.9 °F 39.2 °F 100% 30.36 in 0.3 mi SSW 4.6 mph - N/A Fog Fog
3:55 AM 39.2 °F 37.0 °F 39.2 °F 100% 30.36 in - SW 3.5 mph - N/A Fog Fog
4:00 AM 40 °F - 40 °F 98% 30.40 in 0 mi SSW 4.5 mph - - Fog Fog
4:25 AM 39.2 °F 37.0 °F 39.2 °F 100% 30.36 in 0.6 mi WSW 3.5 mph - N/A Fog Fog
4:55 AM 39.2 °F 37.0 °F 39.2 °F 100% 30.36 in - SW 3.5 mph - N/A Fog Fog
5:25 AM 39.2 °F 37.0 °F 39.2 °F 100% 30.36 in 0.3 mi SSW 3.5 mph - N/A Fog Fog
5:55 AM 39.2 °F 37.0 °F 39.2 °F 100% 30.36 in 0.2 mi WSW 3.5 mph - N/A Fog Fog
6:25 AM 39.2 °F 37.0 °F 39.2 °F 100% 30.36 in 0.1 mi WSW 3.5 mph - N/A Fog Fog
6:55 AM 39.2 °F 35.0 °F 39.2 °F 100% 30.39 in 0.1 mi SW 5.8 mph - N/A Fog Fog
7:00 AM 39 °F - 39 °F 99% 30.42 in 0 mi WSW 6.7 mph - - Fog Fog
7:25 AM 39.2 °F 34.2 °F 39.2 °F 100% 30.39 in 0.2 mi SW 6.9 mph - N/A Fog Fog
7:55 AM 39.2 °F 34.2 °F 39.2 °F 100% 30.39 in 0.2 mi SSW 6.9 mph - N/A Fog Fog
8:25 AM 39.2 °F 34.2 °F 39.2 °F 100% 30.39 in 0.1 mi SW 6.9 mph - N/A Fog Fog
8:55 AM 39.2 °F 34.2 °F 39.2 °F 100% 30.42 in 0.1 mi SW 6.9 mph - N/A Fog Fog
9:25 AM 39.2 °F 34.2 °F 39.2 °F 100% 30.42 in 0.1 mi SSW 6.9 mph - N/A Fog Fog
9:55 AM 39.2 °F 33.6 °F 39.2 °F 100% 30.42 in 0.1 mi SSW 8.1 mph - N/A Fog Fog
10:00 AM 40 °F - 40 °F 98% 30.45 in 0 mi SW 8.9 mph - - Fog Fog
10:25 AM 41.0 °F 35.8 °F 41.0 °F 100% 30.42 in 0.1 mi SW 8.1 mph - N/A Fog Fog
10:55 AM 41.0 °F 35.2 °F 41.0 °F 100% 30.42 in 0.4 mi SW 9.2 mph - N/A Fog Fog
11:25 AM 41.0 °F 35.2 °F 41.0 °F 100% 30.42 in 1.4 mi SW 9.2 mph - N/A   Overcast
11:55 AM 41.0 °F 35.8 °F 41.0 °F 100% 30.42 in 2.2 mi SW 8.1 mph - N/A   Overcast
12:25 PM 42.8 °F 38.6 °F 42.8 °F 100% 30.42 in - WSW 6.9 mph - N/A   Overcast
12:55 PM 42.8 °F 38.6 °F 42.8 °F 100% 30.42 in - WSW 6.9 mph - N/A   Mostly Cloudy
1:00 PM 43 °F - 42 °F 92% 30.46 in 3 mi WSW 6.7 mph - -   Mist
1:25 PM 44.6 °F 40.2 °F 42.8 °F 93% 30.42 in 3.7 mi SW 8.1 mph - N/A   Mostly Cloudy
1:55 PM 44.6 °F 42.2 °F 42.8 °F 93% 30.42 in 3.7 mi WSW 4.6 mph - N/A   Mostly Cloudy
2:25 PM 44.6 °F 42.2 °F 41.0 °F 87% 30.42 in 3.7 mi WSW 4.6 mph - N/A   Mostly Cloudy
2:55 PM 44.6 °F 41.4 °F 42.8 °F 93% 30.42 in 3.7 mi SW 5.8 mph - N/A   Mostly Cloudy
3:25 PM 42.8 °F 41.1 °F 41.0 °F 93% 30.42 in 5.6 mi West 3.5 mph - N/A   Mostly Cloudy
3:55 PM 44.6 °F 43.1 °F 42.8 °F 93% 30.42 in 5.0 mi West 3.5 mph - N/A   Mostly Cloudy
4:00 PM 43 °F - 42 °F 92% 30.45 in 5 mi WNW 2.2 mph - -   Mist
4:25 PM 41.0 °F - 41.0 °F 100% 30.42 in 4.3 mi Variable 2.3 mph - N/A   Unknown
4:55 PM 41.0 °F 39.0 °F 41.0 °F 100% 30.42 in - SSW 3.5 mph - N/A   Mostly Cloudy
5:25 PM 41.0 °F 38.0 °F 41.0 °F 100% 30.42 in 3.1 mi SW 4.6 mph - N/A   Overcast
5:55 PM 42.8 °F 41.1 °F 41.0 °F 93% 30.42 in 4.3 mi SW 3.5 mph - N/A   Overcast
6:25 PM 42.8 °F - 41.0 °F 93% 30.42 in 5.6 mi Variable 2.3 mph - N/A   Overcast
6:55 PM 42.8 °F 41.1 °F 41.0 °F 93% 30.45 in 6.2 mi WNW 3.5 mph - N/A   Overcast
7:00 PM 43 °F - 40 °F 85% 30.48 in 7 mi WNW 2.2 mph - -   Partly Cloudy
7:25 PM 42.8 °F 40.1 °F 39.2 °F 87% 30.45 in 6.2 mi NW 4.6 mph - N/A   Overcast
7:55 PM 42.8 °F - 41.0 °F 93% 30.45 in 6.2 mi WNW 2.3 mph - N/A   Overcast
8:25 PM 42.8 °F - 41.0 °F 93% 30.45 in 6.2 mi Variable 2.3 mph - N/A   Overcast
8:55 PM 42.8 °F - 41.0 °F 93% 30.45 in 3.7 mi Variable 2.3 mph - N/A   Mostly Cloudy
9:25 PM 42.8 °F - 42.8 °F 100% 30.45 in 5.6 mi Variable 1.2 mph - N/A   Mostly Cloudy
9:55 PM 42.8 °F - 41.0 °F 93% 30.45 in 5.0 mi Variable 1.2 mph - N/A   Overcast
10:00 PM 43 °F - 42 °F 92% 30.50 in 5 mi West 2.2 mph - -   Mist
10:25 PM 42.8 °F - 41.0 °F 93% 30.45 in 5.6 mi Variable 2.3 mph - N/A   Overcast
10:55 PM 42.8 °F - 41.0 °F 93% 30.45 in 5.6 mi Variable 2.3 mph - N/A   Overcast
11:25 PM 42.8 °F 41.1 °F 42.8 °F 100% 30.45 in 5.0 mi North 3.5 mph - N/A   Overcast
11:55 PM 42.8 °F 40.1 °F 42.8 °F 100% 30.48 in 4.3 mi North 4.6 mph - N/A   Mostly Cloudy